STARLINK-33791, 63594

Orbit data source: Space-Track

STARLINK-33791, 63594 is a payload satellite owned by SpaceX/Seattle (US) in LEO that was launched on Mon, 14 Apr 2025 UTC via an FALCON 9 launch vehicle from the Air Force Eastern Test Range (AFETR). Payload-class satellites include a variety of spacecraft equipped with specific instruments for various scientific and technological missions. These include communications satellites like Starlink; space stations such as the ISS; scientific satellites like the Hubble; Earth observation satellites from companies like Planet Labs, Umbra, and HawkEye 360; GPS; miniature CubeSats for education and research; and military/defense satellites.

Loading next visibility...
Identifier
63594, 2025-076AB
Orbit
LEO
Country
Flag of USUS
Related business
Manufacturer
SpaceX/Seattle
Mission
Operational Commercial Communications
Bus & Motor
STARLINK V2MO, Unknown motor
Mass
575 kg wet, ~530 kg dry
Launch date (UTC)
2025-04-14 (5 months ago)
Launch vehicle
FALCON 9
Launch site
Air Force Eastern Test Range (AFETR)
Object type
Payload
Rocket body
Debris
Shape & HBR
Box + 1 Pan, 14.5 m
Radar Cross Section
41.120 m², Large (>1 m²)

Expand to show TLE details & history
Last TLE update: 14 hours ago

TLE from 14 hours ago
0 STARLINK-33791
1 63594U 25076AB  25260.25571621  .00019598  00000-0  71920-3 0  9995
2 63594  42.9967 221.3433 0000516 260.8978  99.1815 15.27606805 25309
Epoch: 2025-09-17T06:08Z
TLE epoch observation values (Epoch: 2025-09-17T06:08:13.88Z)
Latitude
-0.00004°
Longitude
132.85114°
Altitude
482.8 km
Speed
7.626 km/s
True Right ascension
14h 45m 22s
True Declination
0° 00' 00"
Sunlit
Object was in daylight at epoch
Visualization orbit readout
Latitude
Unknown
Longitude
Unknown
Altitude
Unknown
Speed
Unknown
Apparent Right ascension
Unknown
Apparent Declination
Unknown
Sunlit
N/A
Visualization observer readout
Local Sidereal Time
13:25:41
Azimuth
Unknown
Elevation
Unknown
Doppler factor
Unknown
Orbital elements
Apogee altitude
485.269 km
Perigee altitude
484.56 km
Semi-major axis
6,863.052 km
Eccentricity
0.00005
Inclination
42.9967°
RAAN
221.3433°
Arg. of periapsis
260.8978°
True anomaly
99.18734°
Mean anomaly
99.1815°
Eccentric anomaly
99.18442°
Mean motion
3.8174 °/min
Orbital period
94.31 mins
BSTAR
0.0007192
Loading maneuver chart data...
Computing Atmospheric mass density...
Loading historical data...
Loading historical data...
Loading historical data...
Loading historical data...
Loading historical data...
Loading historical data...
Loading historical data...

Documentation

Showing up to 5 results
|